CST,Max TemperatureF,Mean TemperatureF,Min TemperatureF,Max Dew PointF,MeanDew PointF,Min DewpointF,Max Humidity, Mean Humidity, Min Humidity, Max Sea Level PressureIn, Mean Sea Level PressureIn, Min Sea Level PressureIn, Max VisibilityMiles, Mean VisibilityMiles, Min VisibilityMiles, Max Wind SpeedMPH, Mean Wind SpeedMPH, Max Gust SpeedMPH,PrecipitationIn, CloudCover, Events, WindDirDegrees
2012-11-1,50,42,34,39,35,30,87,76,63,30.05,30.00,29.95,7,4,2,21,7,21,0.00,2,,347
2012-11-2,52,40,30,30,29,26,82,65,43,30.11,30.03,29.98,10,10,8,13,6,,0.00,0,,61
2012-11-3,55,40,25,34,29,22,88,69,45,30.23,30.19,30.12,9,7,4,9,5,,0.00,2,,345
2012-11-4,59,47,35,44,36,28,90,69,45,30.20,30.10,30.00,8,6,3,18,4,,0.01,6,Rain,125
2012-11-5,46,44,41,43,39,36,93,85,76,30.18,30.11,30.03,6,2,1,21,13,28,0.03,8,Rain,341
2012-11-6,57,47,37,37,33,28,87,63,37,30.07,30.00,29.93,10,9,5,28,14,36,0.00,2,,291
2012-11-7,54,40,27,32,28,23,92,65,41,30.19,30.10,30.01,10,10,8,13,7,,0.00,0,,140
2012-11-8,66,49,32,34,31,27,82,59,30,30.00,29.91,29.85,10,10,8,24,8,29,0.00,0,,158
2012-11-9,66,50,35,51,39,31,87,74,50,29.89,29.79,29.61,9,7,2,18,9,,0.00,0,,31
2012-11-10,79,60,39,56,49,35,94,75,42,29.69,29.55,29.42,10,7,1,32,16,41,0.56,3,Rain-Thunderstorm,228
2012-11-11,35,30,25,32,21,14,89,72,50,30.18,29.93,29.71,10,8,3,24,20,31,0.00,5,Rain,312
2012-11-12,39,30,21,21,17,14,81,63,39,30.39,30.29,30.19,10,10,10,21,11,28,0.00,0,,260
2012-11-13,55,37,19,33,25,16,85,66,31,30.40,30.32,30.24,10,9,7,13,7,,0.00,2,,162
2012-11-14,57,42,28,33,29,24,85,64,32,30.31,30.24,30.17,10,10,8,15,8,,0.00,1,,178
2012-11-15,59,46,30,36,31,25,82,64,37,30.48,30.31,30.17,10,10,7,14,7,,0.00,2,,340
2012-11-16,55,38,21,32,26,17,85,70,40,30.49,30.40,30.30,9,7,4,14,6,,0.00,0,,146
2012-11-17,62,47,32,36,33,28,89,60,36,30.30,30.21,30.13,10,8,4,26,12,33,0.00,0,,159
2012-11-18,63,50,37,38,32,28,70,48,33,30.13,30.08,30.01,10,10,10,23,14,,0.00,1,,161
2012-11-19,61,49,37,39,36,32,79,64,44,30.13,30.04,29.99,10,8,6,16,9,21,0.00,0,,260
2012-11-20,63,44,26,36,30,25,93,71,31,30.25,30.17,30.10,9,5,2,12,4,,0.00,0,,179
2012-11-21,73,56,39,45,40,33,79,56,34,30.09,29.94,29.75,10,10,7,28,13,36,0.00,0,,173
2012-11-22,60,48,37,44,36,24,85,63,44,30.25,29.92,29.70,10,10,8,34,14,43,0.00,0,,293
2012-11-23,36,26,15,21,11,6,68,53,37,30.53,30.45,30.28,10,10,9,33,21,41,0.00,1,,316
2012-11-24,43,28,12,21,15,5,74,55,37,30.41,30.10,29.87,10,10,9,21,7,,0.00,0,,157
2012-11-25,39,37,35,27,26,22,70,64,58,30.19,30.03,29.88,10,8,6,14,7,,0.00,6,,347
2012-11-26,35,24,10,24,15,4,77,64,50,30.49,30.40,30.20,10,7,5,21,11,21,0.00,4,,356
2012-11-27,43,26,10,27,17,5,82,70,47,30.47,30.32,30.18,9,7,5,21,9,,0.00,0,,191
2012-11-28,48,32,15,27,19,11,85,66,36,30.41,30.27,30.09,10,7,4,18,5,,0.00,0,,175
2012-11-29,54,38,21,34,26,18,89,70,47,30.08,29.99,29.92,9,7,4,10,6,,0.00,0,,165
2012-11-30,46,35,24,32,26,18,93,75,54,30.12,30.03,29.94,7,3,1,12,6,,0.00,0,,292